Hourly Data Report for April 28, 2021

OTTAWA INTL A
ONTARIO
Current Station Operator: NAVCAN

45°19'00.000" N
75°40'00.000" W
114.90 m
6106001
71628
YOW

Download Data

Hourly Data (April 2021)
Hourly Data Report for April 28, 2021
TIME
LST
Temp Definition
°C
Dew Point Definition
°C
Rel Hum Definition
%
Precip. Amount Definition
mm

Wind Dir Definition
10's deg

Wind Spd Definition
km/h
Visibility Definition
km
Stn Press Definition
kPa
Hmdx Definition


Wind Chill Definition


Weather Definition


00:00 10.4 4.2 66   14 4 24.1 99.88     LegendNANA
01:00 9.8 4.8 71   27 6 24.1 99.90     Cloudy
02:00 8.7 6.5 86   28 7 24.1 99.91     Rain
03:00 8.4 6.2 86   25 9 24.1 99.90     LegendNANA
04:00 7.6 5.8 89   26 7 24.1 99.90     Mostly Cloudy
05:00 7.3 5.6 89   29 7 24.1 99.91     LegendNANA
06:00 8.8 6.9 88   35 3 24.1 99.88     LegendNANA
07:00 11.3 5.9 69   3 10 24.1 99.83     Clear
08:00 13.3 2.7 48   5 12 24.1 99.83     LegendNANA
09:00 15.1 -0.1 35   5 8 24.1 99.86     LegendNANA
10:00 15.2 -3.7 27   7 8 24.1 99.84     Mostly Cloudy
11:00 15.1 -2.8 29   9 9 24.1 99.81     LegendNANA
12:00 14.0 3.7 50   12 4 24.1 99.77     Rain
13:00 11.6 4.1 60   9 12 16.1 99.69     Rain
14:00 10.8 6.2 73   8 3 16.1 99.69     Rain
15:00 9.8 6.1 78   9 13 16.1 99.65     Rain
16:00 9.5 6.4 81   1 13 12.9 99.70     Rain
17:00 8.9 7.8 93   3 13 8.1 99.80     Rain,Fog
18:00 8.2 6.7 90   5 10 16.1 99.73     Rain
19:00 8.6 6.9 89   1 7 24.1 99.75     Cloudy
20:00 8.7 6.8 88   34 9 24.1 99.74     LegendNANA
21:00 8.8 7.4 91   34 8 24.1 99.72     LegendNANA
22:00 8.8 7.8 94   32 10 24.1 99.67     Cloudy
23:00 8.7 8.0 95   34 10 24.1 99.69     LegendNANA

Notes on Data Quality.

Legend

  • E = Estimated
  • M = Missing
  • NA = Not Available*
  • [empty] = Indicates an unobserved value
Date modified: